• In Moldova, Republic
  • List of Countries
  • For 7 days
  • Water Temperature
  • Satellite Maps
  • Weather Map
  • Weather Widgets
  • user-avatar
    Login

    Hourly Weather Brisbane

    Today, 23 April, Sunday

    Time Temperature Precipitation Wind Pressure Humidity
    00:00 +17°C° 0 mm 4 mps 765 mmHg 85%
    01:00 +17°C° 0 mm 4 mps 765 mmHg 85%
    02:00 +17°C° 0 mm 4 mps 765 mmHg 86%
    03:00 +17°C° 0 mm 4 mps 764 mmHg 86%
    04:00 +17°C° 0 mm 3 mps 764 mmHg 86%
    05:00 +17°C° 0 mm 4 mps 764 mmHg 86%
    06:00 +17°C° 0 mm 4 mps 765 mmHg 85%
    07:00 +17°C° 0 mm 4 mps 765 mmHg 84%
    08:00 +19°C° 0.1 mm 4 mps 765 mmHg 79%
    09:00 +21°C° 0.1 mm 4 mps 765 mmHg 73%
    10:00 +25°C° 0 mm 4 mps 765 mmHg 66%
    11:00 +26°C° 0 mm 4 mps 764 mmHg 63%
    12:00 +26°C° 0 mm 4 mps 764 mmHg 61%
    13:00 +27°C° 0 mm 4 mps 763 mmHg 59%
    14:00 +26°C° 0 mm 4 mps 763 mmHg 62%
    15:00 +26°C° 0 mm 4 mps 763 mmHg 65%
    16:00 +25°C° 0 mm 4 mps 763 mmHg 69%
    17:00 +22°C° 0 mm 4 mps 763 mmHg 76%
    18:00 +21°C° 0 mm 3 mps 764 mmHg 84%
    19:00 +19°C° 0 mm 3 mps 764 mmHg 91%
    20:00 +19°C° 0 mm 3 mps 764 mmHg 91%
    21:00 +19°C° 0 mm 3 mps 764 mmHg 91%
    22:00 +19°C° 0 mm 2 mps 764 mmHg 91%
    23:00 +18°C° 0 mm 2 mps 764 mmHg 91%

    Tomorrow, 24 April, Monday

    Time Temperature Precipitation Wind Pressure Humidity
    00:00 +18°C° 0 mm 2 mps 764 mmHg 91%
    01:00 +18°C° 0 mm 2 mps 764 mmHg 91%
    02:00 +18°C° 0 mm 3 mps 764 mmHg 92%
    03:00 +17°C° 0 mm 3 mps 764 mmHg 93%
    04:00 +17°C° 0 mm 3 mps 764 mmHg 94%
    05:00 +17°C° 0 mm 3 mps 764 mmHg 93%
    06:00 +17°C° 0 mm 3 mps 764 mmHg 91%
    07:00 +18°C° 0 mm 3 mps 764 mmHg 90%
    08:00 +20°C° 0 mm 3 mps 764 mmHg 82%
    09:00 +22°C° 0 mm 3 mps 764 mmHg 74%
    10:00 +25°C° 0 mm 3 mps 764 mmHg 66%
    11:00 +25°C° 0 mm 3 mps 763 mmHg 64%
    12:00 +26°C° 0 mm 3 mps 763 mmHg 61%
    13:00 +27°C° 0 mm 3 mps 762 mmHg 59%
    14:00 +26°C° 0 mm 3 mps 762 mmHg 63%
    15:00 +25°C° 0 mm 4 mps 762 mmHg 66%
    16:00 +25°C° 0 mm 4 mps 762 mmHg 70%
    17:00 +22°C° 0 mm 3 mps 762 mmHg 77%
    18:00 +20°C° 0 mm 3 mps 762 mmHg 84%
    19:00 +19°C° 0 mm 2 mps 763 mmHg 91%
    20:00 +18°C° 0 mm 2 mps 763 mmHg 91%
    21:00 +18°C° 0 mm 2 mps 763 mmHg 91%
    22:00 +17°C° 0 mm 2 mps 763 mmHg 91%
    23:00 +17°C° 0 mm 2 mps 763 mmHg 91%

    Day after tomorrow, 25 April, Tuesday

    Time Temperature Precipitation Wind Pressure Humidity
    00:00 +18°C° 0 mm 1 mps 763 mmHg 92%
    01:00 +16°C° 0 mm 1 mps 762 mmHg 92%
    02:00 +16°C° 0 mm 1 mps 762 mmHg 92%
    03:00 +16°C° 0 mm 1 mps 762 mmHg 93%
    04:00 +16°C° 0 mm 1 mps 762 mmHg 93%
    05:00 +18°C° 0 mm 1 mps 762 mmHg 93%
    06:00 +18°C° 0 mm 1 mps 762 mmHg 92%
    07:00 +19°C° 0 mm 1 mps 763 mmHg 91%
    08:00 +21°C° 0 mm 1 mps 763 mmHg 82%
    09:00 +23°C° 0 mm 1 mps 763 mmHg 73%
    10:00 +25°C° 0 mm 1 mps 763 mmHg 64%
    11:00 +26°C° 0 mm 1 mps 762 mmHg 62%
    12:00 +27°C° 0 mm 1 mps 761 mmHg 59%
    13:00 +27°C° 0 mm 2 mps 760 mmHg 56%
    14:00 +27°C° 0 mm 2 mps 760 mmHg 59%
    15:00 +26°C° 0 mm 3 mps 759 mmHg 62%
    16:00 +26°C° 0 mm 3 mps 759 mmHg 66%
    17:00 +24°C° 0 mm 3 mps 759 mmHg 73%
    18:00 +21°C° 0 mm 3 mps 760 mmHg 80%
    19:00 +19°C° 0 mm 3 mps 760 mmHg 88%
    20:00 +19°C° 0 mm 3 mps 760 mmHg 89%
    21:00 +19°C° 0 mm 3 mps 760 mmHg 89%
    22:00 +18°C° 0 mm 3 mps 760 mmHg 90%
    23:00 +18°C° 0 mm 3 mps 760 mmHg 91%

    26 April, Wednesday

    Time Temperature Precipitation Wind Pressure Humidity
    00:00 +18°C° 0 mm 3 mps 759 mmHg 92%
    01:00 +18°C° 0 mm 3 mps 759 mmHg 93%
    02:00 +18°C° 0 mm 3 mps 759 mmHg 93%
    03:00 +18°C° 0 mm 3 mps 758 mmHg 93%
    04:00 +18°C° 0 mm 4 mps 758 mmHg 93%
    05:00 +18°C° 0 mm 4 mps 758 mmHg 92%
    06:00 +18°C° 0 mm 4 mps 759 mmHg 91%
    07:00 +19°C° 0 mm 4 mps 759 mmHg 90%
    08:00 +21°C° 0 mm 4 mps 759 mmHg 80%
    09:00 +25°C° 0 mm 4 mps 759 mmHg 70%
    10:00 +28°C° 0 mm 5 mps 759 mmHg 60%
    11:00 +29°C° 0 mm 5 mps 758 mmHg 55%
    12:00 +30°C° 0 mm 5 mps 757 mmHg 51%
    13:00 +32°C° 0 mm 5 mps 756 mmHg 47%
    14:00 +30°C° 0.7 mm 5 mps 756 mmHg 52%
    15:00 +29°C° 0.7 mm 5 mps 755 mmHg 58%
    16:00 +28°C° 0.7 mm 4 mps 755 mmHg 63%
    17:00 +26°C° 0.6 mm 4 mps 755 mmHg 68%
    18:00 +23°C° 0.6 mm 4 mps 756 mmHg 74%
    19:00 +21°C° 0.6 mm 4 mps 756 mmHg 79%
    20:00 +21°C° 0.2 mm 4 mps 757 mmHg 81%
    21:00 +20°C° 0.2 mm 5 mps 757 mmHg 84%
    22:00 +19°C° 0.2 mm 5 mps 758 mmHg 86%
    23:00 +17°C° 0 mm 5 mps 758 mmHg 85%

    27 April, Thursday

    Time Temperature Precipitation Wind Pressure Humidity
    00:00 +18°C° 0 mm 4 mps 758 mmHg 84%
    01:00 +17°C° 0 mm 4 mps 757 mmHg 83%
    02:00 +17°C° 0 mm 4 mps 757 mmHg 83%
    03:00 +15°C° 0 mm 4 mps 757 mmHg 82%
    04:00 +14°C° 0 mm 3 mps 757 mmHg 82%
    05:00 +14°C° 0 mm 3 mps 758 mmHg 81%
    06:00 +14°C° 0 mm 3 mps 758 mmHg 80%
    07:00 +16°C° 0 mm 3 mps 759 mmHg 79%
    08:00 +18°C° 0 mm 3 mps 759 mmHg 69%
    09:00 +20°C° 0 mm 3 mps 759 mmHg 60%
    10:00 +22°C° 0 mm 3 mps 759 mmHg 51%
    11:00 +24°C° 0 mm 3 mps 759 mmHg 47%
    12:00 +24°C° 0 mm 3 mps 758 mmHg 43%
    13:00 +25°C° 0 mm 3 mps 758 mmHg 38%
    14:00 +25°C° 0 mm 3 mps 758 mmHg 40%
    15:00 +23°C° 0 mm 4 mps 758 mmHg 42%
    16:00 +23°C° 0 mm 4 mps 758 mmHg 43%
    17:00 +21°C° 0 mm 4 mps 758 mmHg 50%
    18:00 +18°C° 0 mm 4 mps 759 mmHg 57%
    19:00 +15°C° 0 mm 4 mps 760 mmHg 64%
    20:00 +15°C° 0 mm 4 mps 760 mmHg 66%
    21:00 +15°C° 0 mm 4 mps 761 mmHg 68%
    22:00 +15°C° 0 mm 4 mps 761 mmHg 70%
    23:00 +15°C° 0 mm 4 mps 761 mmHg 68%

    28 April, Friday

    Time Temperature Precipitation Wind Pressure Humidity
    00:00 +15°C° 0 mm 4 mps 761 mmHg 66%
    01:00 +15°C° 0 mm 4 mps 761 mmHg 64%
    02:00 +14°C° 0 mm 4 mps 761 mmHg 65%
    03:00 +14°C° 0 mm 4 mps 761 mmHg 66%
    04:00 +13°C° 0 mm 4 mps 761 mmHg 67%
    05:00 +13°C° 0 mm 4 mps 761 mmHg 65%
    06:00 +12°C° 0 mm 4 mps 762 mmHg 63%
    07:00 +12°C° 0 mm 4 mps 762 mmHg 62%
    08:00 +14°C° 0 mm 4 mps 762 mmHg 55%
    09:00 +17°C° 0 mm 4 mps 762 mmHg 49%
    10:00 +19°C° 0 mm 3 mps 762 mmHg 42%
    11:00 +21°C° 0 mm 3 mps 762 mmHg 42%
    12:00 +22°C° 0 mm 3 mps 761 mmHg 42%
    13:00 +24°C° 0 mm 2 mps 761 mmHg 41%
    14:00 +24°C° 0 mm 2 mps 761 mmHg 44%
    15:00 +23°C° 0 mm 2 mps 760 mmHg 46%
    16:00 +23°C° 0 mm 2 mps 760 mmHg 48%
    17:00 +20°C° 0 mm 2 mps 761 mmHg 57%
    18:00 +17°C° 0 mm 2 mps 761 mmHg 65%
    19:00 +15°C° 0 mm 2 mps 761 mmHg 74%
    20:00 +14°C° 0 mm 2 mps 762 mmHg 78%
    21:00 +13°C° 0 mm 2 mps 762 mmHg 82%
    22:00 +12°C° 0 mm 1 mps 762 mmHg 86%
    23:00 +12°C° 0 mm 1 mps 762 mmHg 86%
    Show more